Location: Lafig�re
(44.4503°N, 4.0357°E)
Time: 00:39:18
(UTC+00:00)

Tiros 1 - Pass Details

Date: 25 January 2021
Orbit: 630 x 664 km, 48.4° (Epoch: 06 March)

Event Time Altitude Azimuth Distance (km) Brightness Sun altitude
Rises 18:18:37 0° 254° (WSW) 2,927 12.3 -16.9°
Reaches altitude 10° 18:20:57 10° 256° (WSW) 2,016 11.0 -17.3°
Maximum altitude 18:25:36 74° 342° (NNW) 659 7.1 -18.1°
Enters shadow 18:27:22 37° 59° (ENE) 986 7.6 -18.5°
